Location: Llanfihangel-Ystrad
(52.1833°N, 4.1667°W)
Time: 19:34:52
(UTC+00:00)

Cosmos 1484 Rocket - Pass Details

Date: 17 February 2020
Orbit: 506 x 559 km, 97.4° (Epoch: 05 April)

Event Time Altitude Azimuth Distance (km) Brightness Sun altitude
Rises 05:09:14 0° 16° (NNE) 2,708 6.7 -22.0°
Reaches altitude 10° 05:11:23 10° 20° (NNE) 1,820 5.8 -21.7°
Maximum altitude 05:15:16 61° 101° (E) 627 3.3 -21.1°
Drops below altitude 10° 05:19:12 10° 182° (S) 1,830 5.4 -20.5°
Enters shadow 05:20:40 - 185° (S) 2,434 6.0 -20.3°
